Weather History for Haines, AK

Change the Weather History Date:

Wednesday, February 6, 2013

  Actual Average Record
Temperature  
Mean Temperature 27 °F -  
Max Temperature 30 °F 29 °F 52 °F (1982)
Min Temperature 24 °F 22 °F -2 °F (2008)
Degree Days  
Heating Degree Days 38    
Moisture  
Dew Point 21 °F    
Average Humidity 79    
Maximum Humidity 93    
Minimum Humidity 66    
Precipitation  
Precipitation 0.00 in - - ()
Sea Level Pressure  
Sea Level Pressure 29.65 in    
Wind  
Wind Speed 11 mph (WNW)    
Max Wind Speed 15 mph    
Max Gust Speed -    
Visibility 10 miles    
Events Snow    
Averages and records for this station are not official NWS values.
T = Trace of Precipitation, MM = Missing Value Source: NWS Daily Summary

Daily Weather History Graph

Daily Weather History Graph

Search for Another Location

Airport:

Trip Planner

Search our weather history database for the weather conditions in past years. The results will help you decide how hot, cold, wet, or windy it might be!

Date:

Astronomy

Feb. 06, 2013 Rise Set
Actual Time 7:58 AM AKST 4:34 PM AKST
Civil Twilight 7:14 AM AKST 5:18 PM AKST
Nautical Twilight 6:25 AM AKST 6:07 PM AKST
Astronomical Twilight 5:38 AM AKST 6:54 PM AKST
Moon 5:22 AM AKST (2/6) 12:29 PM AKST (2/6)
Length of Visible Light 10h 04m
Length of Day
8h 35m
Waning Crescent, 15% of the Moon is Illuminated
Feb 6
Waning Crescent
Feb 9
New
Feb 17
First Quarter
Feb 25
Full
Mar 4
Last Quarter

Hourly Weather History & Observations

Time (AKST) Temp. Windchill Dew Point Humidity Pressure Visibility Wind Dir Wind Speed Gust Speed Precip Events Conditions
12:54 AM 26.1 °F 15.6 °F 19.9 °F 78% 29.61 in 10.0 mi WNW 11.5 mph - N/A   Overcast
1:54 AM 26.1 °F 15.0 °F 21.0 °F 81% 29.61 in 10.0 mi WNW 12.7 mph - 0.00 in   Overcast
2:54 AM 26.1 °F 15.0 °F 21.0 °F 81% 29.61 in 10.0 mi WNW 12.7 mph - N/A   Overcast
3:54 AM 26.1 °F 14.5 °F 19.9 °F 78% 29.61 in 10.0 mi WNW 13.8 mph - 0.00 in   Overcast
4:54 AM 25.0 °F 13.1 °F 19.9 °F 81% 29.61 in 10.0 mi WNW 13.8 mph - N/A   Overcast
5:54 AM 25.0 °F 13.1 °F 19.0 °F 78% 29.62 in 10.0 mi WNW 13.8 mph - N/A   Overcast
6:54 AM 25.0 °F 14.8 °F 19.0 °F 78% 29.62 in 10.0 mi WNW 10.4 mph - N/A   Overcast
7:54 AM 25.0 °F 13.1 °F 19.0 °F 78% 29.63 in 10.0 mi WNW 13.8 mph - N/A   Overcast
8:54 AM 24.1 °F 12.0 °F 19.0 °F 81% 29.64 in 10.0 mi WNW 13.8 mph - N/A   Overcast
9:54 AM 26.1 °F 14.5 °F 19.0 °F 75% 29.65 in 10.0 mi WNW 13.8 mph - N/A   Overcast
10:54 AM 27.0 °F 15.2 °F 19.0 °F 72% 29.65 in 10.0 mi WNW 15.0 mph - N/A   Overcast
11:54 AM 30.0 °F 19.5 °F 19.9 °F 66% 29.66 in 10.0 mi WNW 13.8 mph - N/A   Partly Cloudy
12:54 PM 30.0 °F 19.5 °F 19.9 °F 66% 29.66 in 10.0 mi WNW 13.8 mph - N/A   Scattered Clouds
1:54 PM 30.0 °F 22.4 °F 19.9 °F 66% 29.66 in 10.0 mi WNW 8.1 mph - N/A   Partly Cloudy
2:54 PM 28.9 °F 22.8 °F 21.0 °F 72% 29.67 in 10.0 mi WNW 5.8 mph - N/A   Overcast
3:54 PM 28.9 °F 21.9 °F 21.9 °F 75% 29.68 in 10.0 mi WNW 6.9 mph - N/A   Overcast
4:54 PM 28.9 °F - 21.9 °F 75% 29.67 in 10.0 mi Calm Calm - N/A   Overcast
5:54 PM 28.0 °F 21.7 °F 23.0 °F 81% 29.68 in 10.0 mi WNW 5.8 mph - 0.00 in   Overcast
6:50 PM 28.4 °F - 23.0 °F 80% 29.67 in 10.0 mi Calm Calm - N/A   Overcast
6:54 PM 28.9 °F - 23.0 °F 78% 29.68 in 10.0 mi Calm Calm - N/A   Overcast
7:54 PM 28.0 °F - 23.0 °F 81% 29.68 in 9.0 mi Calm Calm - 0.00 in   Overcast
8:54 PM 28.0 °F 24.2 °F 24.1 °F 85% 29.68 in 10.0 mi WNW 3.5 mph - 0.00 in   Overcast
9:54 PM 27.0 °F 18.7 °F 24.1 °F 89% 29.69 in 10.0 mi West 8.1 mph - 0.00 in   Overcast
10:54 PM 27.0 °F 18.0 °F 24.1 °F 89% 29.69 in 6.0 mi WNW 9.2 mph - 0.00 in Snow Light Snow
11:42 PM 26.6 °F 16.8 °F 24.8 °F 93% 29.68 in 7.0 mi WNW 10.4 mph - 0.00 in Snow Light Snow
11:54 PM 26.1 °F 15.6 °F 24.1 °F 92% 29.69 in 7.0 mi WNW 11.5 mph - 0.00 in Snow Light Snow